Location: Unspecified
(51.0950°N, 12.9690°E)
Time: 07:28:51
(UTC+00:00)

CZ-6A DEB - Visible Passes

Search period start: 07 October 2024 00:00
Search period end: 17 October 2024 00:00
Orbit: 627 x 760 km, 98.7° (Epoch: 06 October)

Date Brightness Start Highest point End Pass type
(mag) Time Alt. Az. Time Alt. Az. Time Alt. Az.
07 Oct ? 18:06:33 10° SSE 18:10:55 86° WSW 18:15:23 10° NNW visible
07 Oct ? 19:47:49 10° WSW 19:49:11 11° W 19:50:34 10° WNW visible
08 Oct ? 17:09:32 10° ESE 17:13:21 30° ENE 17:17:15 10° N visible
08 Oct ? 18:46:44 10° SSW 18:50:47 37° W 18:54:56 10° NNW visible
09 Oct ? 17:48:27 10° SSE 17:52:46 65° ENE 17:57:14 10° N visible
09 Oct ? 19:27:55 10° SW 19:30:46 17° W 19:33:40 10° NW visible
10 Oct ? 16:51:48 10° ESE 16:55:09 22° ENE 16:58:36 10° N visible
10 Oct ? 18:28:01 10° S 18:32:18 55° WSW 18:36:45 10° NNW visible
11 Oct ? 17:30:05 10° SE 17:34:16 44° ENE 17:38:34 10° N visible
11 Oct ? 19:08:21 10° SSW 19:11:58 25° W 19:15:40 10° NW visible
12 Oct ? 18:09:04 10° SSE 18:13:28 83° WSW 18:18:01 10° NNW visible
12 Oct ? 19:50:24 10° WSW 19:51:44 11° W 19:53:05 10° WNW visible
13 Oct ? 17:11:30 10° SE 17:15:23 31° ENE 17:19:23 10° N visible
13 Oct ? 18:48:42 10° SSW 18:52:47 37° W 18:56:59 10° NNW visible
14 Oct ? 17:49:52 10° SSE 17:54:15 66° ENE 17:58:47 10° N visible
14 Oct ? 19:29:17 10° SW 19:32:13 17° W 19:35:12 10° NW visible
15 Oct ? 16:52:42 10° ESE 16:56:08 22° ENE 16:59:39 10° N visible
15 Oct ? 18:29:00 11° S 18:33:13 56° WSW 18:37:44 10° NNW visible
16 Oct ? 17:30:27 10° SE 17:34:40 44° ENE 17:39:02 10° N visible
16 Oct ? 19:08:37 10° SSW 19:12:19 26° W 19:16:08 10° NW visible
